Regional Weather Roundup
Issued by NWS

Home | Current Version | Previous Version | Graphics & Text | Print | Product List | Glossary Off
Versions: 1 2 3 4 5 6 7 8 9 10 11 12 13 14 15 16 17 18 19 20 21 22 23 24 25 26 27 28 29 30 31 32 33 34 35 36 37 38 39 40 41 42 43 44 45 46 47 48 49 50

000
ASUS43 KMKX 232059
RWRWI

WISCONSIN REGIONAL WEATHER ROUNDUP
NATIONAL WEATHER SERVICE MILWAUKEE/SULLIVAN WI
400 PM CDT WED JUL 23 2014

NOTE: "FAIR" INDICATES FEW OR NO CLOUDS BELOW 12,000 FEET WITH NO
SIGNIFICANT WEATHER AND/OR OBSTRUCTIONS TO VISIBILITY.

WIZ001-002-006>008-014>016-023>028-232200-
NORTHWEST WISCONSIN

CITY           SKY/WX    TMP DP  RH WIND       PRES   REMARKS
SUPERIOR ARPT  SUNNY     76  58  53 E5        30.22S
ASHLAND        SUNNY     73  54  51 NE7       30.23F
HAYWARD        MOSUNNY   74  52  46 N7        30.23S
SIREN          MOSUNNY   76  52  42 N7        30.22F
RICE LAKE      CLOUDY    76  53  44 N7        30.22F
LADYSMITH      SUNNY     77  50  38 NW14      30.22F
EAU CLAIRE     PTSUNNY   79  53  40 N3        30.18F
MENOMONIE      MOCLDY    80  52  37 N8        30.20F HX  80
NEW RICHMOND   PTSUNNY   78  53  42 N5        30.22S
OSCEOLA        MOSUNNY   78  55  45 NW6       30.24F
$$

WIZ003>005-009-010-017-018-232200-
NORTH CENTRAL WISCONSIN

CITY           SKY/WX    TMP DP  RH WIND       PRES   REMARKS
WOODRUFF       MOSUNNY   73  51  46 N7        30.23F
RHINELANDER    MOSUNNY   71  52  50 N9        30.22F
EAGLE RIVER    MOSUNNY   71  47  42 N3        30.22S
LAND O LAKES   PTSUNNY   72  48  43 N7        30.24S
PHILLIPS       MOSUNNY   72  52  48 N6        30.21F
TOMAHAWK       PTSUNNY   70  53  55 CALM      30.21F
MEDFORD        CLOUDY    72  55  55 N9        30.21F
MERRILL        PTSUNNY   71  54  55 NE7       30.20F
$$

WIZ029-030-035-036-043>047-232200-
CENTRAL WISCONSIN

CITY           SKY/WX    TMP DP  RH WIND       PRES   REMARKS
WAUSAU         PTSUNNY   75  52  44 NE6       30.18F
MOSINEE        PTSUNNY   73  54  49 N8        30.21F
MARSHFIELD     PTSUNNY   77  53  43 N10       30.19F
STEVENS POINT  MOSUNNY   73  51  46 N10       30.20F
WAUPACA        MOSUNNY   78  48  35 N10G17    30.19S
WAUTOMA        NOT AVBL
WISC RAPIDS    MOSUNNY   79  54  41 N10       30.20F
CAMP DOUGLAS   NOT AVBL
$$

WIZ011>013-019>022-031-037>040-048>050-232200-
NORTHEAST WISCONSIN

CITY           SKY/WX    TMP DP  RH WIND       PRES   REMARKS
ANTIGO         PTSUNNY   72  51  47 N10       30.22S
STURGEON BAY   MOSUNNY   72  48  43 N14       30.19F
GREEN BAY      PTSUNNY   71  53  52 NE14      30.19F
MANITOWOC      NOT AVBL
APPLETON       PTSUNNY   73  48  40 N14       30.19F
CLINTONVILLE   PTSUNNY   77  46  33 N7        30.19F
OSHKOSH        PTSUNNY   75  52  44 N13       30.17F
$$

WIZ032>034-041-042-053>061-232200-
SOUTHWEST WISCONSIN

CITY           SKY/WX    TMP DP  RH WIND       PRES   REMARKS
LA CROSSE      MOSUNNY   81  54  39 W8        30.18F HX  81
SPARTA         MOSUNNY   80  51  37 NW7       30.19F
VIROQUA        FAIR      76  56  49 N8        30.21S
BOSCOBEL       PTSUNNY   79  54  41 N7        30.18F
PRAIRIE DU CHI MOSUNNY   79  49  35 N6        30.18S
PLATTEVILLE    FAIR      77  55  46 N7        30.19F
$$

WIZ056-057-062-063-064-067-068-232200-
SOUTH CENTRAL WISCONSIN

CITY           SKY/WX    TMP DP  RH WIND       PRES   REMARKS
BARABOO/DELLS  PTSUNNY   77  50  38 N6        30.18F
LONE ROCK      NOT AVBL
WATERTOWN      PTSUNNY   73  55  52 N10       30.17S
MADISON        PTSUNNY   76  55  48 NE10      30.17F
MIDDLETON      FAIR      79  51  38 N6        30.18F
MONROE         PTSUNNY   73  54  49 N8        30.17F
JANESVILLE     MOSUNNY   79  48  34 N12G18    30.15F
$$

WIZ051-052-058>065-066-070>072-232200-
SOUTHEAST WISCONSIN

CITY           SKY/WX    TMP DP  RH WIND       PRES   REMARKS
MILWAUKEE      MOSUNNY   64  54  69 NE14G23   30.18F
WAUKESHA       MOSUNNY   70  54  56 NE14      30.18F
MILWAUKEE/TIMM SUNNY     66  50  55 NE13G18   30.19F
RACINE         SUNNY     66  55  67 NE16G22   30.18F
BURLINGTON     MOSUNNY   71  55  56 NE10      30.16F
KENOSHA        SUNNY     69  55  60 NE13G22   30.16F
FOND DU LAC    PTSUNNY   76  52  43 NE14      30.18F
SHEBOYGAN      MOSUNNY   67  52  58 NE14G22   30.19F
WEST BEND      MOSUNNY   68  54  60 E10       30.18F
JUNEAU         PTSUNNY   74  48  39 N9        30.19F
$$

LSZ147-162-232200-
LAKE SUPERIOR

STATION/POSITION TIME  TEMP    WIND        PRES    WAVE
                       AIR SEA DIR/SP/G            HT/PER
                 (UTC) (F)     (DEG/KT/KT) (MB)    (FT/S)
$$

LMZ867-665-643>646-232200-
LAKE MICHIGAN

STATION/POSITION TIME  TEMP    WIND        PRES    WAVE
                       AIR SEA DIR/SP/G            HT/PER
                 (UTC) (F)     (DEG/KT/KT) (MB)    (FT/S)
$$

TC  - TEMPERATURE IN CELSIUS
VSB - VISIBILITY IN STATUTE MILES
WCI - WIND CHILL INDEX
HX  - HEAT INDEX



USA.gov is the U.S. government's official web portal to all federal, state and local government web resources and services.